{"data":{"norad_id":36397,"intl_designator":"2010-006A","name":"INTELSAT 16 (IS-16)","alt_names":[],"object_type":"PAYLOAD","status":"ACTIVE","operator":null,"country":"ITSO","launch_date":"2010-02-12","launch_site_code":"TYMSC","launch_vehicle":null,"mission":null,"orbit_class":"UNKNOWN","rcs_meters":266.9529,"size_class":null,"mass_kg":null,"dimensions":null,"purposes":["comms"],"wikipedia_slug":null,"has_3d_model":false,"image_url":null,"decayed_at":null,"tle_current":{"epoch":"2026-09-20T01:20:18.178944Z","epoch_age_seconds":56513,"freshness":"FRESH","line1":"1 36397U 10006A   26263.05576596 -.00000102  00000+0  00000+0 0  9999","line2":"2 36397   0.0162 256.3446 0001801 295.6633 147.6391  1.01415808 60604","mean_motion":1.01415808,"eccentricity":0.0001801,"inclination_deg":0.0162,"raan_deg":256.3446,"arg_perigee_deg":295.6633,"mean_anomaly_deg":147.6391,"bstar":0,"rev_number":6060,"period_min":1419.8969848961,"perigee_km":35461.365750183,"apogee_km":35476.439053776,"semimajor_km":41847.039401979,"source":"CELESTRAK","updated_at":"2026-09-20T09:00:35.518642Z"}}}